Location: *
(51.2167°N, 10.0667°E)
Time: 17:17:35
(UTC+00:00)

Cosmos 1441 Rocket - Pass Details

Date: 12 December 2019
Orbit: 496 x 541 km, 81.1° (Epoch: 23 January)

Event Time Altitude Azimuth Distance (km) Brightness Sun altitude
Rises 16:01:04 0° 356° (N) 2,654 6.6 -7.3°
Reaches altitude 10° 16:03:34 10° 12° (NNE) 1,752 5.5 -7.6°
Maximum altitude 16:06:41 23° 66° (ENE) 1,121 4.3 -8.1°
Drops below altitude 10° 16:09:45 10° 120° (ESE) 1,720 5.5 -8.5°
Sets 16:12:11 0° 136° (SE) 2,592 6.6 -8.8°
